Location: Bazine United Methodist Church
(38.4422°N, 99.6918°W)
Time: 19:19:12
(UTC+00:00)

Daily predictions for brighter satellites

Satellite Brightness Start Highest point End
(mag) Time Altitude Azimuth Time Altitude Azimuth Time Altitude Azimuth
NOSS 0 Rocket 4.1 12:00:01 10° NNW 12:06:13 80° ENE 12:12:24 10° SSE
CZ-2C R/B 4.3 12:06:46 10° NW 12:07:32 10° WNW 12:07:32 10° WNW
ATLAS 5 CENTAUR R/B 2.3 12:05:18 17° W 12:07:35 29° NW 12:11:23 10° NNE
Cosmos 1140 Rocket 3.8 12:02:49 10° SW 12:07:49 46° WNW 12:12:49 10° N
H-2A R/B 2.8 12:06:21 10° NNE 12:10:15 89° ESE 12:14:07 10° SSW
RESURS DK-1 2.8 12:07:18 10° SSW 12:11:23 66° ESE 12:15:28 10° NNE
Cosmos 1328 Rocket 3.8 12:07:59 10° SSW 12:12:04 43° W 12:16:12 10° N
Cosmos 1812 2.9 12:08:16 10° S 12:12:05 75° E 12:15:55 10° N
CZ-2C R/B 3.9 12:10:02 10° S 12:12:45 16° SSE 12:15:29 10° ESE
Cosmos 1515 Rocket 3.5 12:09:03 10° S 12:13:22 80° W 12:17:45 10° N
NOSS 3-4 (A) 4.0 12:09:11 12° WSW 12:14:15 38° NW 12:20:01 10° NNE
NOSS 3-4 (C) 3.9 12:09:14 11° WSW 12:14:21 38° NW 12:20:07 10° NNE
Milstar 3 Cent rocket 3.3 12:11:54 10° WSW 12:15:47 24° S 12:19:44 10° SE
Meteor 1-31 Rocket 3.7 12:15:16 10° NNW 12:18:36 28° WNW 12:21:53 10° SW
Cosmos 1242 Rocket 2.4 12:15:29 10° S 12:18:56 87° E 12:22:24 10° N
Cosmos 2219 3.2 12:14:46 10° SSW 12:20:27 90° WNW 12:26:08 10° NNE
SeaSat 1 2.5 12:15:45 10° SSE 12:20:37 64° WSW 12:25:32 10° NNW
NOSS 3-2 (C) 4.4 12:14:00 10° NW 12:21:35 50° WSW 12:29:52 10° S
ADEOS 4.2 12:18:25 10° N 12:23:06 34° WNW 12:27:45 10° SW
MOS 1 Rocket 3.5 12:21:11 10° SSW 12:25:16 41° W 12:29:34 10° NNW
Cosmos 1470 Rocket 3.6 12:22:23 10° NNW 12:26:40 58° W 12:30:53 10° S
COSMO-SKYMED 1 2.9 12:22:33 10° S 12:26:40 43° W 12:30:49 10° NNW
Timation 2 Rocket 4.2 12:19:53 10° SSW 12:26:47 86° WNW 12:33:36 10° NNE
CZ-4C R/B 3.3 12:23:26 10° W 12:27:31 24° NW 12:32:13 10° NNE
ATLAS 2AS CENTAUR R/B 3.3 12:21:36 10° SW 12:29:16 53° NW 12:36:55 10° NNE
SAR-Lupe-4 4.3 12:27:35 10° SSE 12:31:05 58° ENE 12:34:36 10° N
Delta 2 Rocket 4.4 12:26:57 10° W 12:31:33 46° SSW 12:36:39 10° ESE
deb Chang Zheng 4 3.7 12:29:43 10° N 12:33:54 53° WNW 12:38:05 10° SSW
SJ-7 4.3 12:30:25 10° N 12:34:26 76° WNW 12:38:28 10° SSW
Nadezhda 1 Rocket 4.2 12:30:42 10° SSW 12:36:35 49° W 12:42:36 10° N
